Hourly Weather Cha Grande

Today, 25 June, Friday

Time Temperature Precipitation Wind Pressure Humidity
00:00 +20°C° 0 mm 3 mps 724 mmHg 94%
01:00 +20°C° 0 mm 3 mps 724 mmHg 93%
02:00 +20°C° 0 mm 3 mps 724 mmHg 93%
03:00 +20°C° 0 mm 3 mps 724 mmHg 92%
04:00 +19°C° 0 mm 4 mps 723 mmHg 92%
05:00 +19°C° 0 mm 3 mps 724 mmHg 91%
06:00 +19°C° 0 mm 3 mps 724 mmHg 91%
07:00 +19°C° 0 mm 3 mps 724 mmHg 91%
08:00 +21°C° 0 mm 4 mps 725 mmHg 83%
09:00 +23°C° 0 mm 5 mps 725 mmHg 74%
10:00 +26°C° 0 mm 6 mps 726 mmHg 65%
11:00 +27°C° 0 mm 6 mps 725 mmHg 64%
12:00 +27°C° 0 mm 6 mps 725 mmHg 63%
13:00 +28°C° 0 mm 6 mps 725 mmHg 61%
14:00 +27°C° 0.1 mm 6 mps 724 mmHg 65%
15:00 +26°C° 0.1 mm 6 mps 723 mmHg 68%
16:00 +26°C° 0.1 mm 6 mps 723 mmHg 71%
17:00 +23°C° 0.1 mm 6 mps 723 mmHg 78%
18:00 +22°C° 0.1 mm 5 mps 723 mmHg 85%
19:00 +21°C° 0.1 mm 4 mps 724 mmHg 92%
20:00 +20°C° 0 mm 4 mps 724 mmHg 91%
21:00 +20°C° 0 mm 4 mps 724 mmHg 90%
22:00 +20°C° 0 mm 4 mps 725 mmHg 90%
23:00 +20°C° 0 mm 4 mps 724 mmHg 89%

Tomorrow, 26 June, Saturday

Time Temperature Precipitation Wind Pressure Humidity
00:00 +19°C° 0 mm 4 mps 724 mmHg 89%
01:00 +19°C° 0 mm 4 mps 724 mmHg 89%
02:00 +19°C° 0 mm 4 mps 723 mmHg 88%
03:00 +19°C° 0 mm 4 mps 723 mmHg 87%
04:00 +19°C° 0 mm 4 mps 723 mmHg 86%
05:00 +19°C° 0 mm 4 mps 723 mmHg 87%
06:00 +18°C° 0 mm 4 mps 723 mmHg 87%
07:00 +18°C° 0 mm 4 mps 723 mmHg 87%
08:00 +20°C° 0 mm 4 mps 724 mmHg 79%
09:00 +22°C° 0 mm 5 mps 725 mmHg 70%
10:00 +24°C° 0 mm 6 mps 725 mmHg 62%
11:00 +26°C° 0 mm 6 mps 725 mmHg 59%
12:00 +27°C° 0 mm 6 mps 724 mmHg 56%
13:00 +28°C° 0 mm 6 mps 724 mmHg 54%
14:00 +28°C° 0 mm 6 mps 724 mmHg 55%
15:00 +27°C° 0 mm 6 mps 723 mmHg 56%
16:00 +27°C° 0 mm 6 mps 723 mmHg 57%
17:00 +25°C° 0 mm 5 mps 723 mmHg 65%
18:00 +22°C° 0 mm 5 mps 723 mmHg 74%
19:00 +21°C° 0 mm 4 mps 723 mmHg 82%
20:00 +20°C° 0 mm 4 mps 724 mmHg 82%
21:00 +20°C° 0 mm 4 mps 724 mmHg 82%
22:00 +19°C° 0 mm 4 mps 724 mmHg 82%
23:00 +19°C° 0 mm 4 mps 724 mmHg 83%

Day after tomorrow, 27 June, Sunday

Time Temperature Precipitation Wind Pressure Humidity
00:00 +19°C° 0 mm 3 mps 724 mmHg 83%
01:00 +19°C° 0 mm 3 mps 724 mmHg 84%
02:00 +19°C° 0 mm 3 mps 723 mmHg 83%
03:00 +19°C° 0 mm 3 mps 723 mmHg 83%
04:00 +19°C° 0 mm 3 mps 723 mmHg 83%
05:00 +19°C° 0 mm 3 mps 723 mmHg 85%
06:00 +19°C° 0 mm 3 mps 723 mmHg 87%
07:00 +18°C° 0 mm 3 mps 723 mmHg 89%
08:00 +20°C° 0 mm 4 mps 724 mmHg 80%
09:00 +22°C° 0 mm 5 mps 725 mmHg 72%
10:00 +26°C° 0 mm 5 mps 725 mmHg 63%
11:00 +26°C° 0 mm 6 mps 725 mmHg 61%
12:00 +27°C° 0 mm 6 mps 724 mmHg 60%
13:00 +28°C° 0 mm 6 mps 724 mmHg 58%
14:00 +27°C° 0.2 mm 6 mps 724 mmHg 61%
15:00 +26°C° 0.2 mm 6 mps 723 mmHg 65%
16:00 +24°C° 0.2 mm 6 mps 723 mmHg 68%
17:00 +23°C° 0 mm 5 mps 723 mmHg 73%
18:00 +22°C° 0 mm 4 mps 724 mmHg 78%
19:00 +20°C° 0 mm 3 mps 724 mmHg 83%
20:00 +20°C° 0 mm 3 mps 724 mmHg 86%
21:00 +19°C° 0 mm 3 mps 725 mmHg 90%
22:00 +19°C° 0 mm 3 mps 725 mmHg 93%
23:00 +19°C° 0 mm 3 mps 725 mmHg 93%

28 June, Monday

Time Temperature Precipitation Wind Pressure Humidity
00:00 +19°C° 0 mm 3 mps 725 mmHg 94%
01:00 +19°C° 0 mm 3 mps 724 mmHg 94%
02:00 +19°C° 0 mm 3 mps 724 mmHg 94%
03:00 +19°C° 0 mm 3 mps 724 mmHg 94%
04:00 +19°C° 0 mm 3 mps 723 mmHg 94%
05:00 +19°C° 0.1 mm 3 mps 724 mmHg 94%
06:00 +19°C° 0.1 mm 3 mps 724 mmHg 95%
07:00 +19°C° 0.1 mm 3 mps 724 mmHg 96%
08:00 +20°C° 0.1 mm 3 mps 725 mmHg 89%
09:00 +22°C° 0.1 mm 4 mps 725 mmHg 81%
10:00 +25°C° 0.1 mm 5 mps 726 mmHg 74%
11:00 +25°C° 0.2 mm 5 mps 726 mmHg 72%
12:00 +26°C° 0.2 mm 5 mps 725 mmHg 69%
13:00 +26°C° 0.2 mm 6 mps 725 mmHg 67%
14:00 +26°C° 0.1 mm 6 mps 725 mmHg 68%
15:00 +26°C° 0.1 mm 6 mps 724 mmHg 70%
16:00 +25°C° 0.1 mm 5 mps 724 mmHg 71%
17:00 +23°C° 0.1 mm 5 mps 724 mmHg 76%
18:00 +22°C° 0.1 mm 4 mps 725 mmHg 81%
19:00 +21°C° 0.1 mm 3 mps 725 mmHg 86%
20:00 +20°C° 0 mm 3 mps 725 mmHg 88%
21:00 +20°C° 0 mm 3 mps 726 mmHg 89%
22:00 +19°C° 0 mm 3 mps 726 mmHg 90%
23:00 +19°C° 0 mm 3 mps 726 mmHg 90%

29 June, Tuesday

Time Temperature Precipitation Wind Pressure Humidity
00:00 +19°C° 0 mm 3 mps 725 mmHg 90%
01:00 +19°C° 0 mm 3 mps 725 mmHg 90%
02:00 +19°C° 0 mm 3 mps 725 mmHg 90%
03:00 +18°C° 0 mm 3 mps 724 mmHg 90%
04:00 +18°C° 0 mm 3 mps 724 mmHg 90%
05:00 +18°C° 0 mm 3 mps 725 mmHg 90%
06:00 +18°C° 0 mm 2 mps 725 mmHg 89%
07:00 +18°C° 0 mm 2 mps 725 mmHg 89%
08:00 +21°C° 0 mm 3 mps 726 mmHg 81%
09:00 +23°C° 0 mm 4 mps 726 mmHg 74%
10:00 +26°C° 0 mm 5 mps 727 mmHg 66%
11:00 +26°C° 0 mm 5 mps 726 mmHg 65%
12:00 +27°C° 0 mm 6 mps 726 mmHg 64%
13:00 +28°C° 0 mm 6 mps 726 mmHg 63%
14:00 +27°C° 0.1 mm 6 mps 725 mmHg 66%
15:00 +26°C° 0.1 mm 6 mps 725 mmHg 69%
16:00 +26°C° 0.1 mm 5 mps 725 mmHg 71%
17:00 +25°C° 0.1 mm 4 mps 725 mmHg 77%
18:00 +22°C° 0.1 mm 4 mps 725 mmHg 82%
19:00 +21°C° 0.1 mm 3 mps 725 mmHg 87%
20:00 +21°C° 0 mm 3 mps 725 mmHg 88%
21:00 +20°C° 0 mm 3 mps 726 mmHg 89%
22:00 +20°C° 0 mm 3 mps 726 mmHg 90%
23:00 +20°C° 0 mm 3 mps 726 mmHg 90%

30 June, Wednesday

Time Temperature Precipitation Wind Pressure Humidity
00:00 +20°C° 0 mm 3 mps 725 mmHg 90%
01:00 +20°C° 0 mm 3 mps 725 mmHg 90%
02:00 +20°C° 0 mm 2 mps 725 mmHg 90%
03:00 +20°C° 0 mm 2 mps 724 mmHg 90%
04:00 +20°C° 0 mm 2 mps 724 mmHg 90%
05:00 +20°C° 0 mm 3 mps 724 mmHg 91%
06:00 +20°C° 0 mm 3 mps 724 mmHg 91%
07:00 +20°C° 0 mm 3 mps 724 mmHg 91%
08:00 +21°C° 0 mm 3 mps 725 mmHg 82%
09:00 +23°C° 0 mm 4 mps 725 mmHg 74%
10:00 +26°C° 0 mm 5 mps 726 mmHg 65%
11:00 +26°C° 0 mm 5 mps 726 mmHg 61%
12:00 +27°C° 0 mm 5 mps 725 mmHg 58%
13:00 +28°C° 0 mm 5 mps 725 mmHg 54%
14:00 +28°C° 0 mm 5 mps 725 mmHg 54%
15:00 +28°C° 0 mm 5 mps 724 mmHg 53%
16:00 +28°C° 0 mm 5 mps 724 mmHg 53%
17:00 +26°C° 0 mm 4 mps 724 mmHg 62%
18:00 +24°C° 0 mm 3 mps 724 mmHg 70%
19:00 +21°C° 0 mm 2 mps 725 mmHg 79%
20:00 +21°C° 0 mm 2 mps 725 mmHg 81%
21:00 +20°C° 0 mm 2 mps 725 mmHg 84%
22:00 +20°C° 0 mm 2 mps 725 mmHg 86%
23:00 +19°C° 0 mm 2 mps 725 mmHg 88%
Show more

We Need Your Consent

Meteoprog and our Service Providers may store and access personal data such as cookies, device identifiers or other similar technologies on your device and process such data to personalise content and ads, as well as provide social media features and to analyse the traffic.

  • Store and/or access information on your device

    Cookies, device identifiers or other information can be stored or accessed on your device for the purposes indicated above.

  • Personalised ads and content, ad and content measurement, audience insights, and products development

    Ads and content can be personalised based on a profile. More data can be added to better personalise ads and content. Ad and content performance can be measured. Insights about the audience who saw the ads and content can be derived. Such data can be used to develop or improve user’s experience, systems and software.

By clicking ‘I Agree’ you will allow the use of indicated cookies, device identifiers, web beacons or other similar technologies. Your settings can be changed in the browser on your device.

For certain purposes, legitimate interests may be relied on, rather than consent. You can read more about this in our Privacy and Cookie Policy.